Regional Weather Roundup
Issued by NWS Cleveland, OH

Home | Current Version | Previous Version | Text Only | Print | Product List | Glossary Off
Versions: 1 2 3 4 5 6 7 8 9 10 11 12 13 14 15 16 17 18 19 20 21 22 23 24 25 26 27 28 29 30 31 32 33 34 35 36 37 38 39 40 41 42 43 44 45 46 47 48 49 50

000
ASUS41 KCLE 312002
RWRCLE
OHIO REGIONAL WEATHER ROUNDUP
NATIONAL WEATHER SERVICE CLEVELAND, OH
400 PM EDT THU JUL 31 2014

NOTE: "FAIR" INDICATES FEW OR NO CLOUDS BELOW 12,000 FEET WITH NO
SIGNIFICANT WEATHER AND/OR OBSTRUCTIONS TO VISIBILITY.

OHZ001>008-015>018-024>027-034-035-043-044-312100-
   NORTHWEST OHIO

CITY           SKY/WX    TMP DP  RH WIND       PRES   REMARKS
DEFIANCE       NOT AVBL
FINDLAY        NOT AVBL
TOLEDO EXPRESS NOT AVBL
TOLEDO EXEC    NOT AVBL
LIMA           NOT AVBL
$$

OHZ009>014-019>023-028>033-038-089-312100-
   NORTHEAST OHIO

CITY           SKY/WX    TMP DP  RH WIND       PRES   REMARKS
CLE-HOPKINS    MOSUNNY   76  52  43 SW9       30.09S
CLE-LAKEFRONT  NOT AVBL
CUY CO. ARPT   SUNNY     77  50  38 NW7       30.09S
LORAIN-ELYRIA  NOT AVBL
ASHTABULA      NOT AVBL
AKRON-CANTON   MOSUNNY   78  55  44 W9        30.09S
WOOSTER        NOT AVBL
MANSFIELD      NOT AVBL
YOUNGSTOWN     MOSUNNY   76  53  44 W8        30.09S
$$

OHZ042-051>053-060>062-070>072-077>081-312100-
  SOUTHWEST OHIO

CITY           SKY/WX    TMP DP  RH WIND       PRES   REMARKS
CINC-COVINGTON NOT AVBL
CINC-LUNKEN    NOT AVBL
HAMILTON       NOT AVBL
DAYTON         NOT AVBL
WRIGHT-PAT AFB NOT AVBL
DAYTON GENERAL NOT AVBL
WILMINGTON     NOT AVBL
$$

OHZ036-037-039>041-045>050-054>059-063>069-073>076-082>088-312100-
  CENTRAL AND SOUTHEAST OHIO

CITY           SKY/WX    TMP DP  RH WIND       PRES   REMARKS
COLUMBUS       MOSUNNY   83  57  41 W8        30.08S
OSU AIRPORT    NOT AVBL
BOLTON FIELD   MOSUNNY   77  63  61 SW7       30.09F
RICKENBACK AFB NOT AVBL
NEWARK         NOT AVBL
MARION         NOT AVBL
LANCASTER      NOT AVBL
ZANESVILLE     NOT AVBL
NEW PHILLY     NOT AVBL
$$


USA.gov is the U.S. government's official web portal to all federal, state and local government web resources and services.